Погода в Ромнах

Россия / Амурская область     50°43′11″N   129°17′29″E
темп.,
°C
ветер,
м/с
пор.,
м/с
влажн.,
%
обл.,
%
осадки,
мм/ч
давл.,
гПа
погр.,
м
15 мая, сб
сб1500:00+10ююв3797100 9.6 999226
03:00+8зсз4796100 14.8 998393
06:00+7зсз489317 0.8 998409
09:00+10зюз577576 0.9 9971007
12:00+8з8128690 1.4 9971003
15:00+10з91575100 1.9 9971503
18:00+9з8147896 1.1 9971290
21:00+8зсз6128595 2.4 999866
16 мая, вс
вс1600:00+8з6128796 0.3 1000645
03:00+8з6128366 0.4 1000476
06:00+7з511815 0.0 1001399
09:00+11з57650 0.0 1001693
12:00+16з68465 0.0 10001538
15:00+18зсз59315 0.0 9992754
18:00+18ссз11384 0.0 997237
21:00+12зюз11615 0.1 99914
17 мая, пн
пн1700:00+11юз33634 0.0 99925
03:00+9юз346766 0.0 99853
06:00+10ююз4106870 0.0 997206
09:00+15з69525 0.0 998817
12:00+18зсз69415 0.0 9982087
15:00+20зсз79305 0.0 9982772
18:00+17ссз47354 0.0 999820
21:00+12св3442100 0.0 100060
18 мая, вт
вт1800:00+12всв3543100 0.0 999103
03:00+10св4955100 0.0 999263
06:00+9св61072100 0.0 998516
09:00+11св566671 0.0 998646
12:00+15с335575 0.0 9971027
15:00+15зсз6752100 0.0 9981808
18:00+14сз610525 0.0 10001374
21:00+10сз2565100 0.0 1003125
19 мая, ср
ср1900:00+8сз510674 0.0 1004309
03:00+5зюз24731 0.0 100698
06:00+5з24744 0.0 1008180
09:00+11юз124711 0.0 1007467
12:00+16ююз57365 0.0 10051588
15:00+18юз583599 0.0 10042464
18:00+19ю463750 0.0 1003346
21:00+15ю51344100 0.0 1003313